When you browse on this site, cookies collect data to enhance your experience and personalize the content and advertising you see.
Visit our Privacy Policy to learn more. By continuing to use the site, you agree to this use of cookies and data.
  • en Suisse
  • Liste des pays
  • À 7 jours
  • Température de l'eau
  • Carte satellitaire
  • Carte météo
  • Widgets météo
  • user-avatar
    Se connecter

    Météo par heure à Mizgeya

    Ce jour, 16 Juin, Dimanche

    Heure Température Précipitation Vent Pression Humidité
    00:00 +15°C° 0 mm 1 m/s 744 mmHg 95%
    01:00 +15°C° 0 mm 1 m/s 744 mmHg 95%
    02:00 +13°C° 0 mm 0 m/s 744 mmHg 95%
    03:00 +14°C° 0 mm 0 m/s 744 mmHg 94%
    04:00 +14°C° 0 mm 0 m/s 744 mmHg 94%
    05:00 +15°C° 0 mm 0 m/s 744 mmHg 93%
    06:00 +16°C° 0.1 mm 0 m/s 744 mmHg 91%
    07:00 +19°C° 0.1 mm 1 m/s 745 mmHg 89%
    08:00 +20°C° 0.1 mm 1 m/s 745 mmHg 86%
    09:00 +20°C° 0.4 mm 2 m/s 745 mmHg 81%
    10:00 +21°C° 0.4 mm 3 m/s 745 mmHg 76%
    11:00 +22°C° 0.4 mm 3 m/s 744 mmHg 70%
    12:00 +22°C° 0 mm 3 m/s 744 mmHg 67%
    13:00 +24°C° 0 mm 3 m/s 745 mmHg 64%
    14:00 +24°C° 0 mm 3 m/s 745 mmHg 61%
    15:00 +24°C° 0.1 mm 3 m/s 744 mmHg 64%
    16:00 +22°C° 0.1 mm 3 m/s 744 mmHg 67%
    17:00 +22°C° 0.1 mm 3 m/s 744 mmHg 70%
    18:00 +21°C° 0 mm 2 m/s 744 mmHg 76%
    19:00 +19°C° 0 mm 2 m/s 745 mmHg 81%
    20:00 +18°C° 0 mm 1 m/s 745 mmHg 86%
    21:00 +18°C° 0 mm 1 m/s 745 mmHg 87%
    22:00 +16°C° 0 mm 1 m/s 745 mmHg 88%
    23:00 +15°C° 0 mm 1 m/s 745 mmHg 89%

    Demain, 17 Juin, Lundi

    Heure Température Précipitation Vent Pression Humidité
    00:00 +15°C° 0 mm 1 m/s 745 mmHg 89%
    01:00 +15°C° 0 mm 1 m/s 745 mmHg 90%
    02:00 +14°C° 0 mm 1 m/s 745 mmHg 90%
    03:00 +15°C° 0 mm 1 m/s 745 mmHg 90%
    04:00 +16°C° 0 mm 1 m/s 745 mmHg 89%
    05:00 +16°C° 0 mm 1 m/s 745 mmHg 89%
    06:00 +19°C° 0 mm 1 m/s 745 mmHg 83%
    07:00 +20°C° 0 mm 1 m/s 746 mmHg 77%
    08:00 +22°C° 0 mm 1 m/s 746 mmHg 72%
    09:00 +23°C° 0 mm 2 m/s 746 mmHg 68%
    10:00 +24°C° 0 mm 2 m/s 746 mmHg 64%
    11:00 +25°C° 0 mm 3 m/s 746 mmHg 60%
    12:00 +25°C° 0.1 mm 2 m/s 745 mmHg 61%
    13:00 +25°C° 0.1 mm 2 m/s 745 mmHg 61%
    14:00 +25°C° 0.1 mm 2 m/s 745 mmHg 61%
    15:00 +25°C° 0.1 mm 2 m/s 745 mmHg 62%
    16:00 +25°C° 0.1 mm 1 m/s 745 mmHg 64%
    17:00 +25°C° 0.1 mm 1 m/s 745 mmHg 66%
    18:00 +24°C° 0.1 mm 1 m/s 745 mmHg 70%
    19:00 +22°C° 0.1 mm 1 m/s 745 mmHg 75%
    20:00 +19°C° 0.1 mm 0 m/s 745 mmHg 80%
    21:00 +20°C° 0 mm 1 m/s 745 mmHg 82%
    22:00 +20°C° 0 mm 1 m/s 745 mmHg 84%
    23:00 +20°C° 0 mm 1 m/s 745 mmHg 86%

    Après-demain, 18 Juin, Mardi

    Heure Température Précipitation Vent Pression Humidité
    00:00 +19°C° 0 mm 1 m/s 745 mmHg 88%
    01:00 +19°C° 0 mm 1 m/s 744 mmHg 90%
    02:00 +18°C° 0 mm 1 m/s 744 mmHg 91%
    03:00 +19°C° 0.1 mm 1 m/s 744 mmHg 91%
    04:00 +19°C° 0.1 mm 1 m/s 744 mmHg 91%
    05:00 +19°C° 0.1 mm 1 m/s 744 mmHg 91%
    06:00 +20°C° 0.3 mm 1 m/s 744 mmHg 87%
    07:00 +22°C° 0.3 mm 1 m/s 745 mmHg 84%
    08:00 +23°C° 0.3 mm 1 m/s 745 mmHg 80%
    09:00 +23°C° 0.7 mm 2 m/s 745 mmHg 78%
    10:00 +24°C° 0.7 mm 3 m/s 745 mmHg 76%
    11:00 +25°C° 0.7 mm 3 m/s 745 mmHg 74%
    12:00 +25°C° 0.5 mm 4 m/s 745 mmHg 72%
    13:00 +26°C° 0.5 mm 4 m/s 744 mmHg 70%
    14:00 +26°C° 0.5 mm 4 m/s 744 mmHg 69%
    15:00 +26°C° 0 mm 3 m/s 744 mmHg 69%
    16:00 +26°C° 0 mm 3 m/s 744 mmHg 69%
    17:00 +26°C° 0 mm 2 m/s 745 mmHg 69%
    18:00 +24°C° 0 mm 2 m/s 745 mmHg 72%
    19:00 +21°C° 0 mm 2 m/s 745 mmHg 75%
    20:00 +20°C° 0 mm 1 m/s 745 mmHg 78%
    21:00 +19°C° 0 mm 1 m/s 745 mmHg 79%
    22:00 +18°C° 0 mm 1 m/s 746 mmHg 80%
    23:00 +16°C° 0 mm 1 m/s 746 mmHg 81%

    19 Juin, Mercredi

    Heure Température Précipitation Vent Pression Humidité
    00:00 +16°C° 0 mm 1 m/s 746 mmHg 83%
    01:00 +16°C° 0 mm 2 m/s 746 mmHg 86%
    02:00 +15°C° 0 mm 2 m/s 746 mmHg 88%
    03:00 +16°C° 0 mm 2 m/s 746 mmHg 87%
    04:00 +16°C° 0 mm 2 m/s 747 mmHg 87%
    05:00 +17°C° 0 mm 2 m/s 747 mmHg 86%
    06:00 +18°C° 0 mm 2 m/s 747 mmHg 80%
    07:00 +20°C° 0 mm 2 m/s 747 mmHg 74%
    08:00 +21°C° 0 mm 3 m/s 747 mmHg 68%
    09:00 +22°C° 0 mm 3 m/s 747 mmHg 63%
    10:00 +24°C° 0 mm 3 m/s 748 mmHg 57%
    11:00 +25°C° 0 mm 3 m/s 748 mmHg 52%
    12:00 +26°C° 0 mm 3 m/s 748 mmHg 52%
    13:00 +26°C° 0 mm 2 m/s 747 mmHg 51%
    14:00 +26°C° 0 mm 2 m/s 747 mmHg 51%
    15:00 +26°C° 0 mm 2 m/s 747 mmHg 55%
    16:00 +26°C° 0 mm 2 m/s 747 mmHg 59%
    17:00 +26°C° 0 mm 1 m/s 747 mmHg 63%
    18:00 +24°C° 0 mm 1 m/s 747 mmHg 67%
    19:00 +22°C° 0 mm 1 m/s 747 mmHg 72%
    20:00 +18°C° 0 mm 0 m/s 747 mmHg 77%
    21:00 +17°C° 0 mm 0 m/s 747 mmHg 79%
    22:00 +17°C° 0 mm 0 m/s 748 mmHg 81%
    23:00 +16°C° 0 mm 0 m/s 748 mmHg 83%

    20 Juin, Jeudi

    Heure Température Précipitation Vent Pression Humidité
    00:00 +16°C° 0 mm 0 m/s 748 mmHg 84%
    01:00 +16°C° 0 mm 1 m/s 748 mmHg 86%
    02:00 +16°C° 0 mm 1 m/s 748 mmHg 87%
    03:00 +18°C° 0 mm 1 m/s 748 mmHg 86%
    04:00 +18°C° 0 mm 1 m/s 748 mmHg 85%
    05:00 +19°C° 0 mm 1 m/s 748 mmHg 84%
    06:00 +21°C° 0 mm 1 m/s 749 mmHg 78%
    07:00 +21°C° 0 mm 0 m/s 749 mmHg 72%
    08:00 +23°C° 0 mm 0 m/s 749 mmHg 66%
    09:00 +26°C° 0 mm 1 m/s 749 mmHg 61%
    10:00 +26°C° 0 mm 1 m/s 749 mmHg 56%
    11:00 +27°C° 0 mm 1 m/s 749 mmHg 51%
    12:00 +28°C° 0 mm 2 m/s 749 mmHg 50%
    13:00 +28°C° 0 mm 2 m/s 748 mmHg 50%
    14:00 +28°C° 0 mm 2 m/s 748 mmHg 49%
    15:00 +28°C° 0 mm 2 m/s 748 mmHg 53%
    16:00 +28°C° 0 mm 2 m/s 748 mmHg 57%
    17:00 +27°C° 0 mm 1 m/s 748 mmHg 62%
    18:00 +25°C° 0 mm 1 m/s 748 mmHg 66%
    19:00 +23°C° 0 mm 2 m/s 748 mmHg 70%
    20:00 +20°C° 0 mm 2 m/s 748 mmHg 74%
    21:00 +20°C° 0 mm 2 m/s 748 mmHg 75%
    22:00 +19°C° 0 mm 2 m/s 748 mmHg 76%
    23:00 +18°C° 0 mm 2 m/s 748 mmHg 77%

    21 Juin, Vendredi

    Heure Température Précipitation Vent Pression Humidité
    00:00 +19°C° 0 mm 1 m/s 748 mmHg 80%
    01:00 +18°C° 0 mm 1 m/s 749 mmHg 83%
    02:00 +16°C° 0 mm 1 m/s 749 mmHg 86%
    03:00 +18°C° 0 mm 1 m/s 749 mmHg 86%
    04:00 +19°C° 0 mm 1 m/s 749 mmHg 86%
    05:00 +18°C° 0 mm 2 m/s 749 mmHg 86%
    06:00 +20°C° 0 mm 2 m/s 749 mmHg 81%
    07:00 +23°C° 0 mm 2 m/s 749 mmHg 76%
    08:00 +24°C° 0 mm 3 m/s 749 mmHg 71%
    09:00 +25°C° 0 mm 3 m/s 749 mmHg 67%
    10:00 +26°C° 0 mm 3 m/s 749 mmHg 63%
    11:00 +27°C° 0 mm 4 m/s 749 mmHg 59%
    12:00 +27°C° 0 mm 4 m/s 748 mmHg 59%
    13:00 +27°C° 0 mm 4 m/s 748 mmHg 60%
    14:00 +28°C° 0 mm 4 m/s 748 mmHg 60%
    15:00 +27°C° 0 mm 4 m/s 748 mmHg 63%
    16:00 +27°C° 0 mm 4 m/s 747 mmHg 67%
    17:00 +27°C° 0 mm 3 m/s 747 mmHg 70%
    18:00 +25°C° 0 mm 3 m/s 747 mmHg 75%
    19:00 +24°C° 0 mm 3 m/s 747 mmHg 79%
    20:00 +21°C° 0 mm 3 m/s 747 mmHg 83%
    21:00 +20°C° 0 mm 3 m/s 747 mmHg 84%
    22:00 +20°C° 0 mm 3 m/s 747 mmHg 85%
    23:00 +19°C° 0 mm 3 m/s 747 mmHg 86%
    Voir plus